Wind_Speed
26 25 25 24 23 20 20 21 21 21 20 18 18 18 19 19 18 16 15 15 14 17 21 23 23 23 23 23 21 18 17 19 21 22 21 18 16 16 15 15 16 16 15
31 32 30 28 26 22 20 21 23 24 24 23 22 23 21 19 17 15 16 16 17 20 23 26 26 25 26 26 25 22 20 20 23 24 23 20 17 16 15 14 15 16 16
37 37 35 31 27 25 23 23 25 25 25 24 23 20 16 14 14 15 17 19 21 23 25 26 26 26 27 27 26 24 23 23 24 25 24 22 19 17 16 14 14 17 18
39 39 37 33 31 30 28 27 27 25 25 25 22 18 14 13 14 17 20 22 23 25 25 26 25 24 25 26 25 24 23 24 26 27 27 25 20 17 17 15 14 16 17
36 38 37 34 33 31 30 30 27 24 23 22 21 18 17 16 18 19 22 24 24 25 25 25 25 24 24 26 26 25 23 25 28 29 27 25 22 19 19 17 15 15 14
31 36 38 37 37 34 33 33 26 22 20 19 17 17 17 19 20 21 22 25 25 24 24 25 26 25 25 25 25 23 23 26 30 31 27 25 22 21 20 18 17 15 13
23 28 35 39 39 39 38 33 26 21 16 14 15 16 17 20 21 22 23 24 25 24 25 26 25 25 24 23 22 21 23 26 29 31 28 25 22 22 21 20 18 17 17
20 22 27 34 37 39 37 31 21 14 10 11 15 16 19 20 21 23 24 25 25 25 25 25 24 24 23 21 19 19 21 24 27 28 26 22 21 22 23 22 22 21 20
21 20 23 28 31 32 28 22 12 7 8 12 16 18 19 21 23 24 24 25 25 24 24 24 24 23 22 20 16 15 17 19 21 23 21 19 19 20 20 22 25 25 24
20 21 25 27 25 24 19 13 7 7 11 15 18 19 20 22 24 25 25 25 24 24 23 23 23 22 20 18 15 13 14 17 19 21 22 22 22 21 20 21 24 26 27
20 20 20 19 16 15 13 8 7 9 13 16 18 20 22 23 24 25 26 26 26 25 23 22 21 20 19 16 15 14 15 17 18 21 22 23 22 19 18 19 22 26 28
14 13 12 7 5 4 4 5 6 10 14 18 22 25 26 25 25 24 25 25 26 25 23 21 20 19 19 17 14 13 14 15 16 17 19 21 21 20 18 17 19 24 29
12 12 11 7 2 3 4 6 10 14 17 20 23 25 26 24 21 20 20 20 22 22 21 20 20 19 20 20 18 16 16 15 16 16 16 18 20 21 22 22 20 22 28
14 10 5 3 4 5 6 10 14 17 18 19 21 21 22 19 17 18 20 19 19 19 20 20 20 20 21 21 22 21 20 19 18 18 19 20 20 21 23 24 25 24 28
13 9 5 6 8 9 9 11 15 18 19 20 20 22 20 17 16 18 20 20 20 20 20 20 20 21 22 23 24 25 25 23 22 21 21 21 22 23 23 24 25 25 28
16 14 12 12 14 15 14 15 17 19 20 21 20 20 19 17 17 18 19 19 19 20 19 18 19 20 22 23 25 26 26 26 24 23 23 22 22 23 23 23 24 24 27
19 21 19 16 16 17 18 19 19 19 19 18 18 18 19 19 19 20 20 21 21 20 20 20 19 19 22 23 24 25 26 26 25 24 24 24 24 24 24 24 24 22 22
10 12 13 13 14 16 17 18 17 16 16 17 18 19 20 20 20 20 20 21 22 23 23 22 21 22 21 22 22 22 23 24 25 25 25 25 26 26 26 25 24 22 22
5 4 5 7 8 9 11 12 14 15 16 18 19 20 21 21 20 19 19 21 23 22 22 22 22 22 21 21 22 23 23 24 25 25 26 26 26 27 28 27 25 23 22
7 4 2 2 4 6 9 12 14 15 16 17 19 21 21 20 19 19 21 22 22 21 20 21 22 22 21 22 23 23 24 25 25 25 25 26 27 27 27 27 26 25 23
6 3 2 3 6 9 12 14 15 16 17 18 19 20 19 19 20 20 20 20 20 19 19 20 21 22 23 25 26 27 28 28 28 27 26 26 26 27 27 26 26 26 25
6 6 7 9 11 13 14 15 16 15 16 17 17 17 17 18 19 18 17 17 17 17 18 20 21 24 26 29 31 33 34 34 34 33 30 27 26 27 26 24 25 25 25
11 11 12 12 13 13 14 15 16 16 17 17 16 16 17 18 18 17 16 16 17 18 19 21 23 25 27 29 31 32 33 34 35 35 34 31 27 26 26 24 24 25 25
13 13 13 13 14 14 15 16 17 18 18 17 17 17 18 18 18 17 16 17 18 18 19 20 22 24 25 27 29 30 30 30 30 31 32 31 28 24 24 24 23 24 24
13 12 13 14 14 15 15 16 17 17 16 15 16 16 17 17 16 15 15 15 16 17 18 19 20 22 23 23 23 22 21 21 22 24 26 26 25 23 23 23 22 21 21
12 13 14 14 14 15 17 18 17 15 14 14 14 14 15 15 15 14 13 14 15 15 15 16 17 18 18 18 16 11 6 7 12 15 18 18 18 19 20 20 20 19 17
Wind_Direction
264 277 282 279 274 273 273 274 273 270 267 266 269 277 285 290 292 290 288 293 286 285 295 299 298 291 287 285 278 264 257 254 251 248 248 248 249 242 245 247 242 233 228
275 285 283 274 270 269 270 271 271 269 268 270 274 278 281 285 290 291 290 293 292 290 291 294 293 288 284 281 276 267 258 249 247 248 246 245 241 241 243 243 235 223 222
275 282 282 273 266 263 265 268 270 268 268 271 275 279 281 283 288 291 293 293 291 289 288 289 289 286 283 279 274 268 259 248 244 244 243 241 237 237 237 236 232 223 225
270 276 274 266 257 254 259 263 264 266 269 273 278 282 282 285 291 293 292 291 290 289 287 285 286 284 279 274 269 265 260 248 241 241 240 239 237 233 230 229 227 224 226
262 267 261 254 248 244 248 253 253 258 266 274 279 281 284 292 295 295 295 295 293 291 289 287 286 283 276 267 262 262 261 251 244 242 242 235 230 225 223 225 225 224 225
256 257 248 243 241 238 243 245 243 249 257 266 272 279 288 294 297 297 296 295 294 290 288 287 287 286 281 270 262 259 256 250 245 243 242 233 227 220 220 224 226 226 225
253 248 243 238 237 240 241 236 232 239 248 260 273 282 290 295 297 296 294 293 292 289 286 287 288 288 284 273 263 256 251 246 244 243 240 235 232 221 219 221 224 229 229
241 239 236 235 237 242 238 224 220 225 242 267 279 286 292 295 296 294 291 289 289 291 290 289 287 286 283 276 265 254 248 244 244 246 242 236 237 230 225 224 223 226 231
234 237 239 237 238 240 232 219 209 224 257 273 279 283 288 289 288 286 286 286 289 292 291 288 284 282 279 275 269 249 243 243 246 246 242 244 248 251 249 244 236 229 228
235 240 240 240 234 224 216 203 208 249 270 277 281 287 288 285 284 283 283 284 285 286 287 285 281 278 275 270 264 251 238 238 244 243 242 246 251 252 253 254 248 236 230
232 235 242 230 210 197 198 205 231 257 272 277 280 282 281 281 284 286 284 281 279 278 278 281 281 278 273 268 263 254 241 237 241 243 243 244 244 241 243 248 247 238 232
247 259 260 234 171 167 201 226 253 271 278 280 281 283 286 287 289 289 290 287 282 276 272 274 277 276 271 266 262 255 246 244 247 246 243 241 241 238 238 243 245 238 230
271 284 298 293 261 192 210 256 269 274 277 281 286 290 291 290 289 294 296 294 288 278 269 269 273 273 269 266 263 258 253 250 250 249 246 245 244 242 242 246 251 247 237
265 265 267 242 222 219 247 265 271 273 278 289 295 299 300 294 291 297 299 294 288 278 269 270 274 275 272 268 264 260 257 255 254 253 253 253 252 250 250 251 252 254 243
249 252 257 261 252 254 261 271 278 280 291 304 301 301 307 305 301 300 300 295 284 278 273 270 272 275 275 271 266 263 261 260 259 257 256 256 257 255 256 254 253 252 244
238 250 265 276 271 269 272 277 283 288 298 303 303 307 313 312 309 305 302 297 293 286 279 275 273 273 273 272 268 266 265 264 262 260 258 256 257 256 256 255 254 255 247
241 246 254 260 263 268 273 278 286 292 297 301 304 308 307 306 307 305 303 303 302 298 292 288 285 282 275 271 269 265 264 264 263 262 260 257 255 255 254 254 255 257 249
224 235 241 251 263 272 276 281 286 292 296 298 301 305 307 307 306 303 302 303 302 298 293 288 284 282 279 271 265 263 261 262 262 262 261 259 256 253 252 253 254 253 247
158 200 235 256 268 272 274 278 285 293 299 303 307 309 309 308 306 304 303 304 303 298 292 288 284 281 275 269 265 262 261 262 263 263 262 261 258 254 251 250 250 249 246
108 120 157 229 253 266 277 287 295 302 307 309 311 312 311 310 309 308 308 308 306 300 293 289 285 280 274 268 264 262 262 261 260 260 261 261 260 258 256 253 250 248 245
74 60 358 311 303 305 306 305 305 307 308 311 313 314 316 316 316 314 312 311 309 303 297 292 288 284 279 273 269 265 262 260 259 259 259 260 261 259 257 257 255 253 248
24 359 337 325 320 317 313 308 305 305 307 308 312 316 320 321 319 316 314 314 315 312 306 300 295 290 286 281 277 271 266 262 259 257 256 257 258 257 255 254 252 250 250
3 350 338 331 327 324 319 316 313 310 309 307 309 314 317 317 316 312 311 314 317 316 312 308 304 300 296 291 286 279 271 264 258 254 251 251 253 254 251 249 247 246 247
354 349 346 343 340 336 333 330 326 321 316 313 313 314 317 319 318 315 312 314 316 317 317 315 313 310 306 302 296 285 274 264 255 248 244 243 245 247 245 243 242 242 242
358 1 359 354 350 348 347 343 337 329 325 322 320 321 324 327 327 324 322 322 322 320 320 321 321 320 318 317 310 295 276 258 246 237 233 233 238 240 237 236 237 235 235
3 2 359 357 355 353 354 353 352 350 348 346 346 345 345 344 343 340 337 335 332 331 332 334 335 335 334 335 341 340 307 240 221 219 219 224 231 229 226 225 222 219 223
Height
5857 5859 5860 5861 5862 5863 5863 5863 5863 5863 5863 5862 5862 5862 5861 5860 5859 5857 5856 5855 5854 5853 5852 5850 5849 5847 5845 5844 5842 5840 5839 5838 5837 5838 5839 5841 5843 5844 5845 5846 5848 5850 5851
5849 5850 5853 5854 5855 5857 5857 5857 5857 5857 5857 5857 5857 5857 5856 5855 5854 5853 5851 5850 5849 5848 5846 5844 5843 5841 5840 5838 5836 5835 5835 5834 5834 5833 5834 5836 5839 5840 5842 5843 5844 5846 5848
5841 5842 5844 5846 5847 5849 5850 5851 5851 5851 5851 5851 5851 5851 5850 5849 5849 5847 5846 5844 5843 5841 5839 5837 5836 5834 5833 5831 5830 5830 5829 5829 5829 5829 5830 5832 5834 5836 5838 5839 5840 5842 5845
5832 5835 5836 5838 5840 5842 5842 5843 5843 5844 5845 5846 5846 5846 5845 5845 5843 5842 5840 5838 5836 5835 5832 5830 5828 5826 5825 5824 5823 5823 5823 5824 5824 5824 5825 5827 5830 5832 5834 5835 5836 5838 5840
5825 5827 5828 5830 5831 5831 5833 5834 5835 5836 5839 5840 5841 5841 5840 5839 5838 5836 5833 5831 5829 5827 5825 5823 5821 5818 5817 5816 5816 5816 5817 5818 5818 5819 5820 5821 5824 5826 5829 5831 5833 5835 5836
5818 5819 5821 5822 5823 5822 5824 5825 5826 5829 5832 5834 5835 5835 5834 5833 5831 5829 5826 5823 5821 5820 5819 5817 5814 5811 5810 5809 5809 5809 5810 5811 5813 5814 5815 5816 5819 5821 5824 5827 5829 5831 5833
5809 5810 5812 5814 5815 5814 5815 5817 5819 5822 5826 5829 5830 5829 5828 5827 5825 5822 5819 5816 5814 5813 5812 5811 5808 5805 5804 5803 5803 5803 5803 5804 5806 5808 5809 5811 5813 5817 5819 5822 5825 5827 5830
5802 5803 5804 5805 5807 5807 5807 5809 5814 5818 5822 5824 5824 5823 5822 5820 5818 5815 5812 5809 5807 5806 5805 5804 5801 5799 5798 5797 5797 5797 5797 5798 5800 5802 5803 5806 5808 5811 5814 5817 5820 5823 5825
5795 5796 5796 5797 5799 5801 5802 5805 5810 5815 5818 5818 5817 5816 5815 5814 5811 5809 5806 5803 5802 5800 5799 5797 5795 5794 5793 5792 5792 5792 5792 5794 5795 5797 5799 5801 5804 5806 5809 5812 5815 5818 5820
5789 5790 5790 5790 5791 5794 5798 5801 5807 5811 5812 5812 5811 5810 5809 5808 5805 5802 5799 5797 5796 5794 5793 5791 5790 5789 5788 5788 5788 5788 5788 5790 5791 5793 5795 5797 5799 5801 5804 5806 5808 5811 5814
5785 5786 5786 5785 5787 5791 5796 5800 5803 5806 5807 5806 5806 5805 5803 5801 5799 5796 5793 5791 5790 5788 5787 5785 5784 5783 5783 5784 5784 5785 5786 5786 5787 5788 5790 5791 5793 5795 5797 5800 5802 5804 5807
5781 5781 5783 5785 5789 5793 5796 5799 5801 5801 5801 5800 5799 5797 5795 5793 5790 5788 5786 5784 5783 5781 5780 5779 5778 5778 5778 5779 5780 5781 5783 5784 5784 5784 5785 5786 5788 5790 5792 5793 5795 5797 5799
5779 5781 5782 5784 5788 5791 5794 5796 5796 5795 5794 5793 5792 5790 5787 5785 5783 5782 5780 5778 5776 5774 5774 5774 5773 5773 5773 5773 5774 5776 5778 5779 5780 5781 5782 5783 5783 5785 5786 5787 5788 5789 5792
5776 5779 5782 5784 5786 5788 5791 5792 5791 5790 5788 5788 5786 5784 5782 5780 5778 5776 5775 5773 5771 5770 5769 5769 5768 5768 5768 5768 5769 5770 5772 5773 5774 5776 5777 5778 5779 5780 5780 5780 5781 5782 5784
5774 5776 5780 5782 5784 5786 5787 5787 5787 5785 5783 5782 5780 5777 5776 5775 5773 5771 5769 5767 5766 5765 5765 5764 5763 5762 5762 5762 5762 5763 5765 5766 5768 5769 5771 5772 5773 5774 5774 5774 5774 5775 5776
5773 5774 5776 5778 5779 5780 5781 5782 5782 5781 5780 5778 5776 5774 5772 5771 5769 5767 5765 5763 5761 5760 5759 5758 5757 5756 5756 5755 5755 5756 5757 5758 5760 5762 5763 5764 5765 5766 5767 5767 5768 5768 5768
5770 5772 5774 5775 5775 5775 5776 5777 5777 5777 5775 5774 5772 5771 5769 5768 5766 5763 5761 5759 5757 5755 5753 5751 5750 5750 5749 5749 5748 5749 5750 5751 5752 5754 5756 5757 5758 5759 5761 5761 5761 5761 5761
5767 5769 5771 5772 5772 5772 5773 5773 5773 5773 5772 5770 5769 5768 5766 5764 5761 5759 5756 5753 5751 5749 5746 5745 5744 5743 5742 5741 5741 5742 5743 5744 5745 5747 5748 5749 5751 5752 5754 5755 5756 5756 5756
5768 5770 5771 5772 5772 5772 5772 5771 5770 5770 5768 5767 5765 5763 5760 5758 5755 5752 5750 5747 5745 5742 5740 5738 5737 5736 5735 5735 5735 5735 5736 5737 5738 5740 5741 5742 5743 5744 5746 5747 5748 5750 5751
5771 5771 5772 5772 5773 5773 5772 5770 5769 5767 5765 5763 5760 5757 5755 5752 5749 5746 5744 5741 5738 5736 5734 5732 5731 5730 5729 5728 5728 5728 5729 5730 5731 5732 5733 5734 5735 5736 5738 5740 5741 5743 5745
5774 5774 5773 5773 5772 5771 5770 5768 5766 5764 5762 5759 5756 5753 5750 5747 5744 5741 5739 5736 5733 5731 5729 5727 5725 5724 5723 5722 5721 5721 5721 5722 5722 5724 5725 5726 5728 5729 5731 5733 5735 5737 5739
5776 5775 5774 5772 5770 5769 5767 5765 5763 5761 5759 5756 5753 5750 5747 5744 5741 5738 5735 5732 5729 5726 5724 5722 5720 5718 5716 5714 5712 5711 5711 5711 5712 5714 5716 5718 5720 5722 5724 5726 5728 5730 5732
5776 5774 5773 5771 5769 5767 5765 5763 5760 5758 5755 5753 5750 5747 5744 5741 5737 5734 5731 5728 5725 5723 5720 5717 5714 5711 5707 5704 5701 5698 5697 5698 5700 5702 5705 5708 5711 5714 5717 5719 5721 5723 5726
5776 5774 5772 5770 5768 5766 5763 5760 5757 5754 5752 5749 5746 5743 5740 5736 5733 5729 5727 5724 5721 5718 5715 5712 5708 5704 5700 5695 5690 5685 5684 5684 5686 5690 5694 5699 5703 5706 5709 5712 5715 5717 5719
5776 5774 5772 5769 5767 5764 5762 5758 5755 5752 5748 5746 5742 5739 5736 5732 5729 5726 5723 5720 5718 5715 5711 5708 5704 5699 5694 5688 5680 5674 5672 5673 5676 5680 5685 5691 5696 5699 5703 5706 5709 5711 5714
5776 5774 5771 5769 5766 5763 5760 5756 5753 5749 5746 5743 5740 5736 5733 5729 5726 5723 5720 5717 5714 5711 5708 5705 5701 5696 5690 5684 5677 5671 5668 5669 5672 5677 5681 5686 5690 5694 5698 5702 5705 5708 5711